TimePST,TemperatureF,Dew PointF,Humidity,Sea Level PressureIn,VisibilityMPH,Wind Direction,Wind SpeedMPH,Gust SpeedMPH,PrecipitationIn,Events,Conditions,WindDirDegrees,DateUTC
12:53 AM,64.0,30.9,29,30.19,10.0,Calm,Calm,-,N/A,,Clear,0,2013-03-02 08:53:00
1:53 AM,63.0,30.9,30,30.19,10.0,ENE,4.6,-,N/A,,Clear,60,2013-03-02 09:53:00
2:53 AM,62.1,30.0,30,30.17,10.0,NE,4.6,-,N/A,,Clear,50,2013-03-02 10:53:00
3:53 AM,61.0,28.0,29,30.16,10.0,ENE,6.9,-,N/A,,Clear,60,2013-03-02 11:53:00
4:53 AM,59.0,28.0,31,30.17,10.0,ENE,3.5,-,N/A,,Clear,70,2013-03-02 12:53:00
5:53 AM,60.1,28.0,30,30.18,10.0,NE,4.6,-,N/A,,Partly Cloudy,50,2013-03-02 13:53:00
6:53 AM,64.9,27.0,24,30.19,10.0,Variable,3.5,-,N/A,,Scattered Clouds,0,2013-03-02 14:53:00
7:53 AM,69.8,26.6,20,30.19,10.0,NE,4.6,-,N/A,,Scattered Clouds,50,2013-03-02 15:53:00
8:53 AM,73.4,26.6,18,30.19,10.0,ENE,8.1,-,N/A,,Scattered Clouds,60,2013-03-02 16:53:00
9:53 AM,78.1,27.0,15,30.19,10.0,ESE,8.1,-,N/A,,Scattered Clouds,110,2013-03-02 17:53:00
10:53 AM,80.1,25.0,13,30.19,10.0,NW,3.5,-,N/A,,Scattered Clouds,310,2013-03-02 18:53:00
11:53 AM,72.0,39.9,31,30.18,10.0,West,11.5,-,N/A,,Mostly Cloudy,260,2013-03-02 19:53:00
12:53 PM,72.0,33.1,24,30.15,10.0,West,12.7,-,N/A,,Mostly Cloudy,270,2013-03-02 20:53:00
1:53 PM,72.0,33.1,24,30.13,10.0,WSW,9.2,-,N/A,,Mostly Cloudy,250,2013-03-02 21:53:00
2:53 PM,72.0,30.9,22,30.12,10.0,West,10.4,-,N/A,,Mostly Cloudy,270,2013-03-02 22:53:00
3:53 PM,72.0,28.9,20,30.10,10.0,West,10.4,-,N/A,,Mostly Cloudy,280,2013-03-02 23:53:00
4:53 PM,70.0,30.0,23,30.08,10.0,West,8.1,-,N/A,,Mostly Cloudy,280,2013-03-03 00:53:00
5:53 PM,64.0,42.1,45,30.09,10.0,West,8.1,-,N/A,,Mostly Cloudy,260,2013-03-03 01:53:00
6:53 PM,63.0,46.0,54,30.10,10.0,WSW,8.1,-,N/A,,Mostly Cloudy,250,2013-03-03 02:53:00
7:53 PM,60.1,48.9,67,30.10,10.0,West,5.8,-,N/A,,Scattered Clouds,260,2013-03-03 03:53:00
8:53 PM,59.0,51.1,75,30.11,10.0,WSW,6.9,-,N/A,,Mostly Cloudy,250,2013-03-03 04:53:00
9:53 PM,57.9,48.9,72,30.11,10.0,WSW,4.6,-,N/A,,Scattered Clouds,240,2013-03-03 05:53:00
10:53 PM,57.9,50.0,75,30.10,10.0,SW,4.6,-,N/A,,Scattered Clouds,230,2013-03-03 06:53:00
11:53 PM,57.0,52.0,83,30.10,10.0,SSW,6.9,-,N/A,,Scattered Clouds,200,2013-03-03 07:53:00